Waarnemingen

Advertentie
Mijn weer
Tain Range, Groot Brittannië (3062): temperatuur & dauwpunt: 16.07.2018 07:00:00 - 22.07.2018 07:00:00 (BST)Tain Range, Groot Brittannië (3062): temperatuur -20cm & temperatuur -100cm: 16.07.2018 07:00:00 - 22.07.2018 07:00:00 (BST)Tain Range, Groot Brittannië (3062): windsnelheid: 16.07.2018 07:00:00 - 22.07.2018 07:00:00 (BST)Tain Range, Groot Brittannië (3062): windrichting: 16.07.2018 07:00:00 - 22.07.2018 07:00:00 (BST)Tain Range, Groot Brittannië (3062): luchtdruk: 16.07.2018 07:00:00 - 22.07.2018 07:00:00 (BST)Tain Range, Groot Brittannië (3062): zicht: 16.07.2018 07:00:00 - 22.07.2018 07:00:00 (BST)Tain Range, Groot Brittannië (3062): neerslag: 16.07.2018 07:00:00 - 22.07.2018 07:00:00 (BST)
Datum & Tijd tt [°C] td [°C] tt -20cm [°C] tt -100cm [°C] ff [km/u] ff [kn] dd ppp [hPa] vv [km] rr [mm]
22.07.2018 07:00:00 - - - - - - - - - -
22.07.2018 06:00:00 17,2 14,1 - - 13 7 WZW 1008,7 50 0,0
22.07.2018 05:00:00 16,5 13,9 - - 24 13 ZZW 1008,7 45 0,0
22.07.2018 04:00:00 15,7 13,9 - - 13 7 ZW 1008,9 50 0,0
22.07.2018 03:00:00 15,8 13,3 - - 16 9 ZW 1009,2 50 0,0
22.07.2018 02:00:00 15,5 13,0 - - 13 7 ZZW 1009,4 50 0,2
22.07.2018 01:00:00 15,5 12,6 - - 18 10 ZZW 1009,9 50 0,0
22.07.2018 00:00:00 15,7 12,6 - - 24 13 ZW 1010,0 50 0,2
21.07.2018 23:00:00 15,7 12,3 - - 9 5 ZW 1010,6 50 0,0
21.07.2018 22:00:00 15,8 12,3 - - 16 9 ZW 1010,7 50 0,2
21.07.2018 21:00:00 16,6 12,1 - - 13 7 ZW 1010,9 50 0,0
21.07.2018 20:00:00 16,5 12,2 - - 5 3 WZW 1011,3 50 0,2
21.07.2018 19:00:00 17,1 13,5 - - 5 3 N 1011,2 50 0,0
21.07.2018 18:00:00 18,0 13,4 - - 9 5 N 1011,1 45 0,2
21.07.2018 17:00:00 19,3 12,9 - - 9 5 ONO 1011,1 50 0,2
21.07.2018 16:00:00 20,1 13,1 - - 9 5 OZO 1011,1 50 0,2
21.07.2018 15:00:00 20,2 14,3 - - 11 6 Z 1011,5 30 0,2
21.07.2018 14:00:00 19,5 13,8 - - 9 5 ZZO 1011,8 50 0,0
21.07.2018 13:00:00 18,6 12,5 - - 5 3 ZZO 1012,1 40 0,0
21.07.2018 12:00:00 16,4 11,9 - - 4 2 ZZO 1012,4 50 0,0
21.07.2018 11:00:00 15,6 12,1 - - 9 5 WNW 1012,9 45 0,0
21.07.2018 10:00:00 14,8 11,6 16,7 14,2 11 6 WNW 1012,9 50 0,0
21.07.2018 09:00:00 14,0 11,5 - - 11 6 WNW 1013,0 50 0,0
21.07.2018 08:00:00 13,4 11,0 - - 13 7 WNW 1013,0 40 0,0
21.07.2018 07:00:00 13,0 11,1 - - 13 7 NW 1012,7 50 0,0
21.07.2018 06:00:00 12,7 10,9 - - 9 5 W 1012,7 50 0,0
21.07.2018 05:00:00 12,8 11,0 - - 18 10 WNW 1013,1 50 0,0
21.07.2018 04:00:00 12,8 11,0 - - 21 11 WNW 1012,9 50 0,0
21.07.2018 03:00:00 12,8 11,4 - - 18 10 NW 1012,9 50 0,0
21.07.2018 02:00:00 13,0 11,2 - - 22 12 NW 1013,3 50 0,0
21.07.2018 01:00:00 13,2 11,4 - - 16 9 NW 1013,1 40 0,0
21.07.2018 00:00:00 13,0 11,6 - - 15 8 NW 1013,1 25 0,0
20.07.2018 23:00:00 14,6 14,1 - - 2 1 Z 1012,9 24 0,0
20.07.2018 22:00:00 14,5 14,0 - - 5 3 O 1012,7 30 0,0
20.07.2018 21:00:00 14,6 14,0 - - 13 7 ONO 1012,5 45 0,2
20.07.2018 20:00:00 14,8 14,4 - - 13 7 NO 1012,1 40 0,0
20.07.2018 19:00:00 15,4 15,0 - - 15 8 N 1012,1 5 0,0
20.07.2018 18:00:00 16,5 15,2 - - 13 7 NO 1011,3 10 0,0
20.07.2018 17:00:00 18,1 15,4 - - 15 8 NW 1011,0 30 0,0
20.07.2018 16:00:00 17,4 15,0 - - 8 4 WNW 1011,0 20 0,0
20.07.2018 15:00:00 16,4 15,0 - - 9 5 WNW 1010,9 4,1 0,0
20.07.2018 14:00:00 17,6 15,3 - - 13 7 WZW 1010,6 13 0,0
20.07.2018 13:00:00 17,7 14,0 - - 11 6 WZW 1010,4 50 0,0
20.07.2018 12:00:00 17,1 14,9 - - 15 8 ZW 1010,4 29 0,0
20.07.2018 11:00:00 14,7 13,9 - - 13 7 ZZW 1010,5 40 0,0
20.07.2018 10:00:00 13,7 13,2 16,7 14,2 11 6 ZW 1010,8 21 0,0
20.07.2018 09:00:00 13,3 12,8 - - 15 8 ZZW 1010,8 7 0,0
20.07.2018 08:00:00 12,9 12,5 - - 11 6 ZZW 1010,8 10 0,0
20.07.2018 07:00:00 12,8 12,3 - - 13 7 ZZW 1010,9 7 0,0
20.07.2018 06:00:00 12,5 12,0 - - 9 5 ZZW 1011,0 12 0,0
20.07.2018 05:00:00 12,6 11,7 - - 13 7 ZZW 1011,3 28 0,0
20.07.2018 04:00:00 12,6 11,9 - - 11 6 Z 1011,7 45 0,0
20.07.2018 03:00:00 12,4 11,3 - - 16 9 ZZW 1012,2 12 0,0
20.07.2018 02:00:00 12,5 11,1 - - 15 8 ZW 1012,9 45 0,0
20.07.2018 01:00:00 12,7 11,1 - - 16 9 ZW 1013,3 50 0,0
20.07.2018 00:00:00 12,9 11,0 - - 21 11 ZZW 1013,7 35 0,0
19.07.2018 23:00:00 13,6 11,0 - - 13 7 ZZW 1014,2 50 0,0
19.07.2018 22:00:00 15,0 10,0 - - 15 8 ZW 1014,6 50 0,0
19.07.2018 21:00:00 16,5 9,2 - - 11 6 WZW 1014,7 50 0,2
19.07.2018 20:00:00 17,2 8,6 - - 16 9 ZW 1014,8 45 0,0
19.07.2018 19:00:00 18,5 8,4 - - 15 8 ZW 1014,6 40 0,0
19.07.2018 18:00:00 19,7 7,7 - - 21 11 ZW 1014,8 50 0,0
19.07.2018 17:00:00 20,9 8,4 - - 22 12 ZW 1015,3 45 0,0
19.07.2018 16:00:00 21,0 8,2 - - 28 15 WZW 1015,7 45 0,0
19.07.2018 15:00:00 20,9 8,0 - - 26 14 ZW 1016,1 50 0,0
19.07.2018 14:00:00 21,0 8,7 - - 24 13 WZW 1016,3 30 0,0
19.07.2018 13:00:00 20,8 9,7 - - 21 11 ZW 1016,6 30 0,0
19.07.2018 12:00:00 19,9 9,2 - - 16 9 ZW 1016,9 35 0,0
19.07.2018 11:00:00 18,9 8,2 - - 16 9 ZZW 1017,1 50 0,0
19.07.2018 10:00:00 18,0 9,3 16,4 14,0 15 8 ZZW 1017,4 50 0,0
19.07.2018 09:00:00 16,5 11,4 - - 4 2 ZW 1017,9 50 0,0
19.07.2018 08:00:00 14,4 11,0 - - 8 4 ZW 1018,2 40 0,0
19.07.2018 07:00:00 13,1 11,6 - - 5 3 ZZW 1018,4 50 0,0
19.07.2018 06:00:00 11,3 10,6 - - 8 4 ZW 1018,4 35 0,0
19.07.2018 05:00:00 12,1 11,5 - - 8 4 WZW 1018,4 40 0,0
19.07.2018 04:00:00 11,9 11,5 - - 4 2 W 1018,4 18 0,0
19.07.2018 03:00:00 12,0 11,6 - - 9 5 NNW 1018,6 30 0,0
19.07.2018 02:00:00 12,1 11,8 - - 11 6 NW 1018,9 25 0,0
19.07.2018 01:00:00 11,7 11,1 - - 2 1 NNW 1019,0 22 0,0
19.07.2018 00:00:00 12,9 12,3 - - 8 4 NO 1019,1 40 0,0
18.07.2018 23:00:00 13,2 12,0 - - 9 5 NO 1018,9 45 0,0
18.07.2018 22:00:00 13,7 12,3 - - 9 5 NNO 1018,9 45 0,0
18.07.2018 21:00:00 14,1 11,2 - - 9 5 NNO 1018,7 50 0,0
18.07.2018 20:00:00 17,1 7,8 - - 8 4 NNW 1018,4 40 0,0
18.07.2018 19:00:00 17,2 7,9 - - 13 7 NW 1018,2 50 0,0
18.07.2018 18:00:00 17,1 8,7 - - 13 7 WNW 1018,1 50 0,2
18.07.2018 17:00:00 17,3 8,0 - - 9 5 WNW 1017,9 50 0,0
18.07.2018 16:00:00 17,4 8,5 - - 8 4 NW 1017,8 50 0,0
18.07.2018 15:00:00 16,9 6,6 - - 8 4 WNW 1017,6 45 0,0
18.07.2018 14:00:00 16,6 9,2 - - 5 3 WNW 1017,3 50 0,0
18.07.2018 13:00:00 15,9 9,0 - - 8 4 ZO 1016,8 40 0,0
18.07.2018 12:00:00 14,8 10,1 - - 11 6 WZW 1016,6 9 0,0
18.07.2018 11:00:00 15,8 12,4 - - 8 4 WZW 1016,3 45 0,0
18.07.2018 10:00:00 14,8 10,0 16,4 13,9 5 3 ZZW 1016,3 50 0,0
18.07.2018 09:00:00 13,9 10,1 - - 9 5 WNW 1016,1 35 0,0
18.07.2018 08:00:00 13,2 10,9 - - 11 6 WNW 1015,8 50 0,0
18.07.2018 07:00:00 12,7 11,7 - - 5 3 W 1015,4 21 0,0
18.07.2018 06:00:00 11,2 10,9 - - 4 2 ZZW 1015,0 40 0,0
18.07.2018 05:00:00 10,6 10,3 - - 5 3 W 1014,7 45 0,0
18.07.2018 04:00:00 9,7 9,4 - - 8 4 W 1014,6 40 0,0
18.07.2018 03:00:00 10,8 10,0 - - 8 4 WZW 1014,5 50 0,0
18.07.2018 02:00:00 11,8 10,2 - - 9 5 NW 1014,4 30 0,0
18.07.2018 01:00:00 11,9 10,6 - - 9 5 WNW 1014,6 50 0,0
18.07.2018 00:00:00 11,6 11,0 - - 8 4 WZW 1014,5 35 0,0
17.07.2018 23:00:00 12,1 11,4 - - 5 3 NNW 1014,0 45 0,0
17.07.2018 22:00:00 13,2 12,3 - - 2 1 N 1013,7 30 0,0
17.07.2018 21:00:00 13,9 13,2 - - 8 4 NO 1013,4 19 0,2
17.07.2018 20:00:00 14,0 12,6 - - 5 3 NNW 1013,1 50 0,0
17.07.2018 19:00:00 15,4 11,4 - - 9 5 NNO 1012,4 30 0,0
17.07.2018 18:00:00 16,2 13,8 - - 5 3 ZO 1012,3 50 0,0
17.07.2018 17:00:00 15,3 12,6 - - 5 3 WZW 1012,2 40 0,0
17.07.2018 16:00:00 15,5 11,6 - - 4 2 NNW 1012,0 19 0,0
17.07.2018 15:00:00 15,8 11,5 - - 21 11 NW 1012,0 45 0,0
17.07.2018 14:00:00 15,7 12,7 - - 18 10 WNW 1012,0 45 0,0
17.07.2018 13:00:00 14,3 12,1 - - 9 5 NW 1012,0 26 0,0
17.07.2018 12:00:00 17,9 10,3 - - 8 4 ZO 1011,4 40 0,0
17.07.2018 11:00:00 18,2 10,4 - - 8 4 Z 1011,5 30 0,0
17.07.2018 10:00:00 15,9 9,9 17,0 14,2 8 4 NNW 1011,5 50 0,0
17.07.2018 09:00:00 15,5 11,2 - - 8 4 W 1011,6 35 0,0
17.07.2018 08:00:00 14,0 10,8 - - 9 5 ZZW 1011,3 45 0,0
17.07.2018 07:00:00 13,7 10,7 - - 8 4 ZW 1011,2 45 0,0
17.07.2018 06:00:00 13,3 10,7 - - 5 3 ZZW 1011,1 50 0,0
17.07.2018 05:00:00 12,8 10,6 - - 5 3 ZW 1010,9 28 0,2
17.07.2018 04:00:00 12,9 10,6 - - 2 1 ONO 1011,2 50 0,0
17.07.2018 03:00:00 13,5 10,9 - - 8 4 ZZO 1011,2 50 0,0
17.07.2018 02:00:00 13,1 12,3 - - 5 3 O 1011,5 35 0,0
17.07.2018 01:00:00 13,2 12,6 - - 8 4 ZZO 1011,6 13 0,0
17.07.2018 00:00:00 14,4 14,0 - - 5 3 OZO 1011,8 23 0,0
16.07.2018 23:00:00 14,4 13,9 - - 5 3 NO 1011,6 17 0,0
16.07.2018 22:00:00 14,8 13,9 - - 5 3 NW 1011,4 17 0,0
16.07.2018 21:00:00 15,7 14,3 - - 11 6 N 1011,0 26 0,0
16.07.2018 20:00:00 16,4 14,4 - - 9 5 NO 1010,7 29 0,0
16.07.2018 19:00:00 17,6 14,2 - - 15 8 NNO 1010,4 30 0,0
16.07.2018 18:00:00 18,7 12,6 - - 11 6 N 1010,2 50 0,0
16.07.2018 17:00:00 19,1 12,8 - - 13 7 Z 1010,0 50 0,0
16.07.2018 16:00:00 18,7 11,9 - - 13 7 Z 1010,1 40 0,0
16.07.2018 15:00:00 19,0 11,2 - - 11 6 Z 1010,1 30 0,0
16.07.2018 14:00:00 19,6 12,5 - - 15 8 ZZO 1010,2 50 0,0
16.07.2018 13:00:00 19,0 10,6 - - 11 6 Z 1010,3 29 0,0
16.07.2018 12:00:00 17,7 10,5 - - 11 6 ZZW 1010,5 50 0,2
16.07.2018 11:00:00 17,4 10,2 - - 13 7 ZW 1010,3 50 0,0
16.07.2018 10:00:00 16,3 13,3 17,2 14,4 4 2 ZZO 1010,2 11 0,0
16.07.2018 09:00:00 15,4 13,5 - - 5 3 OZO 1010,3 50 0,0
16.07.2018 08:00:00 14,6 13,2 - - 8 4 WNW 1010,0 50 0,0
16.07.2018 07:00:00 13,7 13,2 - - 8 4 W 1009,7 35 0,0

tt = temperatuur
td = dauwpunt
tt -20cm = temperatuur -20cm
tt -100cm = temperatuur -100cm
ff = windsnelheid
dd = windrichting
ppp = luchtdruk
vv = zicht
rr = neerslag

Weerstations in de omgeving